Weather reports worldwide

Advertisment
Ciudad Victoria, Mexico (76491): temperature & dewpoint: 09.12.2019 11:00:00 - 15.12.2019 11:00:00 (CST)Ciudad Victoria, Mexico (76491): wind speed: 09.12.2019 11:00:00 - 15.12.2019 11:00:00 (CST)Ciudad Victoria, Mexico (76491): wind direction: 09.12.2019 11:00:00 - 15.12.2019 11:00:00 (CST)Ciudad Victoria, Mexico (76491): reduced air pressure: 09.12.2019 11:00:00 - 15.12.2019 11:00:00 (CST)Ciudad Victoria, Mexico (76491): visibility: 09.12.2019 11:00:00 - 15.12.2019 11:00:00 (CST)
Date & Time tt [°C] td [°C] ff [km/h] ff [kn] dd ppp [hPa] vv [km]
15.12.2019 11:00:00 - - - - - - -
15.12.2019 10:00:00 - - - - - - -
15.12.2019 09:00:00 15,0 10,9 0 0 N 1011,3 10
15.12.2019 08:00:00 - - - - - - -
15.12.2019 07:00:00 - - - - - - -
15.12.2019 06:00:00 10,2 7,7 0 0 N 1009,5 6
15.12.2019 05:00:00 - - - - - - -
15.12.2019 04:00:00 - - - - - - -
15.12.2019 03:00:00 12,4 8,9 0 0 N 1008,6 6
15.12.2019 02:00:00 - - - - - - -
15.12.2019 01:00:00 - - - - - - -
15.12.2019 00:00:00 15,6 9,9 4 2 W 1008,3 6
14.12.2019 23:00:00 - - - - - - -
14.12.2019 22:00:00 - - - - - - -
14.12.2019 21:00:00 17,8 10,4 4 2 W 1007,4 6
14.12.2019 20:00:00 - - - - - - -
14.12.2019 19:00:00 - - - - - - -
14.12.2019 18:00:00 27,6 13,2 0 0 N 1007,1 10
14.12.2019 17:00:00 - - - - - - -
14.12.2019 16:00:00 - - - - - - -
14.12.2019 15:00:00 33,6 9,3 7 4 SE 1007,6 10
14.12.2019 14:00:00 - - - - - - -
14.12.2019 13:00:00 - - - - - - -
14.12.2019 12:00:00 27,0 13,2 4 2 SSW 1013,6 10
14.12.2019 11:00:00 - - - - - - -
14.12.2019 10:00:00 - - - - - - -
14.12.2019 09:00:00 17,2 9,7 4 2 NE 1014,6 10
14.12.2019 08:00:00 - - - - - - -
14.12.2019 07:00:00 - - - - - - -
14.12.2019 06:00:00 10,8 7,1 0 0 N 1013,7 6
14.12.2019 05:00:00 - - - - - - -
14.12.2019 04:00:00 - - - - - - -
14.12.2019 03:00:00 11,4 7,7 0 0 N 1013,6 6
14.12.2019 02:00:00 - - - - - - -
14.12.2019 01:00:00 - - - - - - -
14.12.2019 00:00:00 16,0 7,7 0 0 N 1012,8 6
13.12.2019 23:00:00 - - - - - - -
13.12.2019 22:00:00 - - - - - - -
13.12.2019 21:00:00 17,0 9,0 0 0 N 1014,0 6
13.12.2019 20:00:00 - - - - - - -
13.12.2019 19:00:00 - - - - - - -
13.12.2019 18:00:00 24,0 13,9 0 0 N 1012,7 10
13.12.2019 17:00:00 - - - - - - -
13.12.2019 16:00:00 - - - - - - -
13.12.2019 15:00:00 29,0 15,1 0 0 N 1013,2 10
13.12.2019 14:00:00 - - - - - - -
13.12.2019 13:00:00 - - - - - - -
13.12.2019 12:00:00 23,4 14,3 0 0 N 1016,6 10
13.12.2019 11:00:00 - - - - - - -
13.12.2019 10:00:00 - - - - - - -
13.12.2019 09:00:00 16,8 12,5 0 0 N 1017,9 10
13.12.2019 08:00:00 - - - - - - -
13.12.2019 07:00:00 - - - - - - -
13.12.2019 06:00:00 9,6 8,8 0 0 N 1017,2 6
13.12.2019 05:00:00 - - - - - - -
13.12.2019 04:00:00 - - - - - - -
13.12.2019 03:00:00 10,8 9,6 0 0 N 1018,1 6
13.12.2019 02:00:00 - - - - - - -
13.12.2019 01:00:00 - - - - - - -
13.12.2019 00:00:00 12,4 10,5 0 0 N 1019,6 6
12.12.2019 23:00:00 - - - - - - -
12.12.2019 22:00:00 - - - - - - -
12.12.2019 21:00:00 15,6 12,0 0 0 N 1019,6 6
12.12.2019 20:00:00 - - - - - - -
12.12.2019 19:00:00 - - - - - - -
12.12.2019 18:00:00 19,6 12,5 4 2 N 1018,6 10
12.12.2019 17:00:00 - - - - - - -
12.12.2019 16:00:00 - - - - - - -
12.12.2019 15:00:00 22,6 12,1 4 2 E 1019,4 10
12.12.2019 14:00:00 - - - - - - -
12.12.2019 13:00:00 - - - - - - -
12.12.2019 12:00:00 18,4 10,2 0 0 N 1023,8 10
12.12.2019 11:00:00 - - - - - - -
12.12.2019 10:00:00 - - - - - - -
12.12.2019 09:00:00 12,0 8,8 0 0 N 1025,8 10
12.12.2019 08:00:00 - - - - - - -
12.12.2019 07:00:00 - - - - - - -
12.12.2019 06:00:00 8,2 7,4 0 0 N 1025,4 6
12.12.2019 05:00:00 - - - - - - -
12.12.2019 04:00:00 - - - - - - -
12.12.2019 03:00:00 10,8 8,4 0 0 N 1026,5 6
12.12.2019 02:00:00 - - - - - - -
12.12.2019 01:00:00 - - - - - - -
12.12.2019 00:00:00 11,8 8,6 4 2 NNE 1028,0 6
11.12.2019 23:00:00 - - - - - - -
11.12.2019 22:00:00 - - - - - - -
11.12.2019 21:00:00 14,2 9,1 7 4 N 1028,5 6
11.12.2019 20:00:00 - - - - - - -
11.12.2019 19:00:00 - - - - - - -
11.12.2019 18:00:00 15,2 9,4 4 2 N 1028,0 10
11.12.2019 17:00:00 - - - - - - -
11.12.2019 16:00:00 - - - - - - -
11.12.2019 15:00:00 15,8 9,7 7 4 N 1028,5 10
11.12.2019 14:00:00 - - - - - - -
11.12.2019 13:00:00 - - - - - - -
11.12.2019 12:00:00 13,6 8,9 11 6 N 1031,7 10
11.12.2019 11:00:00 - - - - - - -
11.12.2019 10:00:00 - - - - - - -
11.12.2019 09:00:00 11,8 8,1 11 6 N 1031,5 10
11.12.2019 08:00:00 - - - - - - -
11.12.2019 07:00:00 - - - - - - -
11.12.2019 06:00:00 12,6 9,0 18 10 N 1028,1 6
11.12.2019 05:00:00 - - - - - - -
11.12.2019 04:00:00 - - - - - - -
11.12.2019 03:00:00 15,0 9,2 14 8 N 1026,6 6
11.12.2019 02:00:00 - - - - - - -
11.12.2019 01:00:00 - - - - - - -
11.12.2019 00:00:00 16,0 9,5 29 16 N 1026,8 6
10.12.2019 23:00:00 - - - - - - -
10.12.2019 22:00:00 - - - - - - -
10.12.2019 21:00:00 16,8 9,6 25 14 N 1025,7 6
10.12.2019 20:00:00 - - - - - - -
10.12.2019 19:00:00 - - - - - - -
10.12.2019 18:00:00 16,8 10,5 47 25 N 1022,1 10
10.12.2019 17:00:00 - - - - - - -
10.12.2019 16:00:00 - - - - - - -
10.12.2019 15:00:00 22,8 11,0 29 16 N 1017,3 10
10.12.2019 14:00:00 - - - - - - -
10.12.2019 13:00:00 - - - - - - -
10.12.2019 12:00:00 22,4 14,3 29 16 N 1017,4 10
10.12.2019 11:00:00 - - - - - - -
10.12.2019 10:00:00 - - - - - - -
10.12.2019 09:00:00 21,2 18,7 14 8 N 1015,0 10
10.12.2019 08:00:00 - - - - - - -
10.12.2019 07:00:00 - - - - - - -
10.12.2019 06:00:00 16,4 15,7 0 0 N 1011,0 6
10.12.2019 05:00:00 - - - - - - -
10.12.2019 04:00:00 - - - - - - -
10.12.2019 03:00:00 16,3 15,5 0 0 N 1008,4 6
10.12.2019 02:00:00 - - - - - - -
10.12.2019 01:00:00 - - - - - - -
10.12.2019 00:00:00 18,2 16,6 0 0 N 1008,8 6
09.12.2019 23:00:00 - - - - - - -
09.12.2019 22:00:00 - - - - - - -
09.12.2019 21:00:00 20,3 17,4 0 0 N 1007,5 6
09.12.2019 20:00:00 - - - - - - -
09.12.2019 19:00:00 - - - - - - -
09.12.2019 18:00:00 26,6 19,3 0 0 N 1006,2 10
09.12.2019 17:00:00 - - - - - - -
09.12.2019 16:00:00 - - - - - - -
09.12.2019 15:00:00 30,0 19,4 4 2 N 1006,7 10
09.12.2019 14:00:00 - - - - - - -
09.12.2019 13:00:00 - - - - - - -
09.12.2019 12:00:00 26,2 18,4 0 0 N 1010,3 10
09.12.2019 11:00:00 - - - - - - -

tt = temperature
td = dewpoint
ff = wind speed
dd = wind direction
ppp = reduced air pressure
vv = visibility

Next stations